FW3866 Weather Reports


time (UTC)temp
F
wind
direction
speed
knots
gust
knots
rain 1hr
in
rain 24hr
in
rain mn
in
humidity
%
barometer
mb
20260508044414 43 86 3.5 4.3 0.00 0.00 0.00 62 1011.4
20260508043414 43 86 3.5 3.5 0.00 0.00 0.00 61 1011.4
20260508042914 43 85 2.6 3.5 0.00 0.00 0.00 61 1011.5
20260508041914 43 85 2.6 4.3 0.00 0.00 0.00 59 1011.6
20260508041412 43 83 3.5 4.3 0.00 0.00 0.00 59 1011.5
20260508040412 43 86 4.3 4.3 0.00 0.00 0.00 60 1011.6
20260508034913 43 0.0 3.5 0.00 0.00 0.00 55 1011.7
20260508034413 43 117 3.5 4.3 0.00 0.00 0.00 56 1011.8
20260508033411 43 117 3.5 4.3 0.00 0.00 0.00 55 1011.7
20260508032913 43 118 3.5 3.5 0.00 0.00 0.00 53 1011.7
20260508032412 43 118 3.5 3.5 0.00 0.00 0.00 53 1011.7
20260508031411 42 118 3.5 4.3 0.00 0.00 0.00 54 1011.7
20260508030912 43 118 3.5 4.3 0.00 0.00 0.00 53 1011.7
20260508030412 43 124 4.3 4.3 0.00 0.00 0.00 51 1011.8
20260508025411 43 124 2.6 3.5 0.00 0.00 0.00 48 1011.7
20260508024911 44 124 2.6 3.5 0.00 0.00 0.00 48 1011.7
20260508024410 44 124 2.6 3.5 0.00 0.00 0.00 47 1011.7
20260508023910 44 118 2.6 4.3 0.00 0.00 0.00 46 1011.7
20260508022911 45 75 3.5 3.5 0.00 0.00 0.00 46 1011.5
20260508022411 46 75 2.6 4.3 0.00 0.00 0.00 44 1011.6
20260508021910 47 65 3.5 4.3 0.00 0.00 0.00 43 1011.5
20260508020911 51 4 1.7 2.6 0.00 0.00 0.00 41 1011.5
20260508020410 53 4 1.7 2.6 0.00 0.00 0.00 39 1011.5
20260508015909 57 3 0.9 2.6 0.00 0.00 0.00 40 1011.5
20260508015410 58 3 1.7 2.6 0.00 0.00 0.00 31 1011.5
20260508014909 58 3 1.7 3.5 0.00 0.00 0.00 29 1011.4
20260508013910 59 0 2.6 3.5 0.00 0.00 0.00 29 1011.4
20260508013409 59 0 2.6 3.5 0.00 0.00 0.00 29 1011.4
20260508012910 60 0 1.7 3.5 0.00 0.00 0.00 28 1011.4
20260508012409 60 0 2.6 3.5 0.00 0.00 0.00 28 1011.5
20260508011409 61 357 1.7 4.3 0.00 0.00 0.00 28 1011.4
20260508010908 61 357 2.6 4.3 0.00 0.00 0.00 28 1011.4
20260508010408 61 350 3.5 6.1 0.00 0.00 0.00 27 1011.4
20260508005409 62 326 3.5 6.1 0.00 0.00 0.00 26 1011.4
20260508004907 63 355 3.5 5.2 0.00 0.00 0.00 26 1011.3
20260508004408 63 330 3.5 7.8 0.00 0.00 0.00 27 1011.3
20260508003907 63 331 4.3 7.8 0.00 0.00 0.00 26 1011.3
20260508003409 63 341 3.5 8.7 0.00 0.00 0.00 25 1011.3
20260508002907 63 334 5.2 8.7 0.00 0.00 0.00 24 1011.3
20260508002408 64 326 5.2 8.7 0.00 0.00 0.00 25 1011.4
20260508001907 64 343 3.5 8.7 0.00 0.00 0.00 25 1011.4
20260508001408 64 333 4.3 7.8 0.00 0.00 0.00 25 1011.3
20260508000907 64 293 5.2 7.8 0.00 0.00 0.00 25 1011.3
20260508000408 64 0.0 10.4 0.00 0.00 0.00 25 1011.3
20260507235406 64 283 7.8 14.8 0.00 0.00 0.00 24 1011.3
20260507234906 64 296 9.6 14.8 0.00 0.00 0.00 25 1011.4
20260507233907 64 282 7.8 12.2 0.00 0.00 0.00 24 1011.3
20260507232905 64 330 7.8 13.0 0.00 0.00 0.00 24 1011.5
20260507232405 64 286 5.2 11.3 0.00 0.00 0.00 24 1011.5
20260507231905 64 307 7.0 14.8 0.00 0.00 0.00 25 1011.6
20260507230905 64 319 11.3 14.8 0.00 0.00 0.00 26 1011.4
20260507230406 64 265 7.8 11.3 0.00 0.00 0.00 27 1011.2
20260507225406 65 307 9.6 13.9 0.00 0.00 0.00 24 1011.3
20260507224906 64 274 7.8 13.0 0.00 0.00 0.00 25 1011.2
20260507224405 65 282 7.0 14.8 0.00 0.00 0.00 24 1011.3
20260507223905 65 288 9.6 14.8 0.00 0.00 0.00 24 1011.2
20260507223404 65 310 8.7 12.2 0.00 0.00 0.00 25 1011.1
20260507222405 65 295 13.0 18.2 0.00 0.00 0.00 24 1011.2
20260507221904 65 313 7.8 16.5 0.00 0.00 0.00 25 1011.2
20260507221405 65 305 11.3 16.5 0.00 0.00 0.00 26 1011.3
20260507220905 65 355 9.6 18.2 0.00 0.00 0.00 22 1011.5
20260507220404 65 300 13.0 18.2 0.00 0.00 0.00 23 1011.3
20260507215903 65 323 6.1 14.8 0.00 0.00 0.00 24 1011.3
20260507214403 65 314 11.3 14.8 0.00 0.00 0.00 23 1011.6
20260507213904 64 317 9.6 14.8 0.00 0.00 0.00 23 1011.6
20260507213404 64 271 7.0 17.4 0.00 0.00 0.00 24 1011.5
20260507212905 64 292 11.3 17.4 0.00 0.00 0.00 24 1011.3
20260507212404 64 300 3.5 6.1 0.00 0.00 0.00 24 1011.7
20260507211903 64 285 5.2 7.8 0.00 0.00 0.00 24 1011.7
20260507211404 65 259 5.2 7.8 0.00 0.00 0.00 25 1011.7
20260507210903 64 44 2.6 10.4 0.00 0.00 0.00 25 1011.7
20260507205902 64 324 7.8 13.0 0.00 0.00 0.00 25 1011.7
20260507204903 64 274 9.6 16.5 0.00 0.00 0.00 26 1011.6
20260507204403 64 251 4.3 15.6 0.00 0.00 0.00 24 1011.7
20260507203901 64 285 7.0 15.6 0.00 0.00 0.00 25 1011.9
20260507203403 64 293 9.6 13.0 0.00 0.00 0.00 30 1012.0
20260507202901 64 292 4.3 11.3 0.00 0.00 0.00 25 1012.0
20260507202403 63 321 7.8 12.2 0.00 0.00 0.00 26 1012.2
20260507201901 63 11 4.3 13.9 0.00 0.00 0.00 26 1012.2
20260507200400 63 344 8.7 16.5 0.00 0.00 0.00 24 1012.2
20260507195901 63 320 9.6 16.5 0.00 0.00 0.00 24 1012.3
20260507195400 63 312 4.3 14.8 0.00 0.00 0.00 25 1012.2
20260507194900 64 3 9.6 14.8 0.00 0.00 0.00 23 1012.3
20260507193900 63 338 7.8 10.4 0.00 0.00 0.00 24 1012.4
20260507193400 62 326 7.8 15.6 0.00 0.00 0.00 29 1012.4
20260507192900 62 245 8.7 15.6 0.00 0.00 0.00 28 1012.4
20260507192400 62 257 6.1 14.8 0.00 0.00 0.00 27 1012.2
20260507191859 62 286 12.2 13.9 0.00 0.00 0.00 28 1012.3
20260507191358 62 305 5.2 14.8 0.00 0.00 0.00 28 1012.3
20260507190900 62 268 12.2 14.8 0.00 0.00 0.00 28 1012.3
20260507190359 62 293 4.3 16.5 0.00 0.00 0.00 26 1012.4
20260507185901 62 319 11.3 18.2 0.00 0.00 0.00 27 1012.3
20260507185359 62 295 15.6 18.2 0.00 0.00 0.00 27 1012.0
20260507184400 62 0 5.2 12.2 0.00 0.00 0.00 27 1012.5
20260507183901 61 319 5.2 15.6 0.00 0.00 0.00 28 1012.5
20260507183359 62 298 7.8 15.6 0.00 0.00 0.00 30 1012.4
20260507182900 62 238 12.2 14.8 0.00 0.00 0.00 31 1012.3
20260507181858 61 281 6.1 10.4 0.00 0.00 0.00 31 1012.6
20260507181358 61 49 5.2 17.4 0.00 0.00 0.00 28 1012.6
20260507180858 61 331 6.1 17.4 0.00 0.00 0.00 29 1012.9
20260507180356 61 310 7.8 12.2 0.00 0.00 0.00 30 1012.8
20260507175857 60 340 5.2 13.9 0.00 0.00 0.00 28 1012.8
20260507174858 60 305 4.3 13.9 0.00 0.00 0.00 30 1012.9
20260507173857 60 306 9.6 18.2 0.00 0.00 0.00 30 1013.1
20260507173357 61 302 13.0 18.2 0.00 0.00 0.00 29 1012.9
20260507172858 60 329 3.5 10.4 0.00 0.00 0.00 33 1013.0
20260507172358 60 0 7.0 16.5 0.00 0.00 0.00 33 1013.0
20260507171857 60 258 6.1 16.5 0.00 0.00 0.00 31 1013.2
20260507171357 59 255 7.8 12.2 0.00 0.00 0.00 30 1013.1
20260507165856 59 286 6.1 11.3 0.00 0.00 0.00 31 1013.3
20260507165356 59 307 7.0 10.4 0.00 0.00 0.00 30 1013.3
20260507164857 59 14 5.2 13.0 0.00 0.00 0.00 31 1013.3
20260507164356 59 326 7.8 13.0 0.00 0.00 0.00 32 1013.4
20260507163857 59 238 3.5 9.6 0.00 0.00 0.00 35 1013.4
20260507163356 58 314 7.0 10.4 0.00 0.00 0.00 34 1013.4
20260507162856 58 350 5.2 10.4 0.00 0.00 0.00 31 1013.5
20260507162355 58 31 4.3 7.8 0.00 0.00 0.00 32 1013.5
20260507161855 58 281 3.5 8.7 0.00 0.00 0.00 34 1013.5
20260507161357 58 0 3.5 8.7 0.00 0.00 0.00 32 1013.6
20260507160856 57 321 0.9 10.4 0.00 0.00 0.00 34 1013.6
20260507160354 57 353 5.2 10.4 0.00 0.00 0.00 33 1013.7
20260507155855 58 321 5.2 7.8 0.00 0.00 0.00 32 1013.7
20260507155355 57 35 4.3 6.1 0.00 0.00 0.00 36 1013.7
20260507154854 56 290 2.6 7.8 0.00 0.00 0.00 38 1013.6
20260507154355 56 244 5.2 7.8 0.00 0.00 0.00 35 1013.6
20260507153854 56 0 3.5 5.2 0.00 0.00 0.00 35 1013.6
20260507153355 56 0 1.7 6.1 0.00 0.00 0.00 35 1013.6
20260507152853 56 307 3.5 6.1 0.00 0.00 0.00 36 1013.6
20260507151855 56 312 4.3 6.1 0.00 0.00 0.00 34 1013.5
20260507151353 56 0 0.9 3.5 0.00 0.00 0.00 35 1013.5
20260507150854 56 261 0.0 1.7 0.00 0.00 0.00 36 1013.6
20260507150353 0 261 0.9 3.5 0.00 0.00 0.00 1013.6
20260507145853 54 235 0.0 4.3 0.00 0.00 0.00 38 1013.6
20260507145355 54 230 3.5 4.3 0.00 0.00 0.00 40 1013.5
20260507144853 54 140 0.0 2.6 0.00 0.00 0.00 40 1013.5
20260507144353 53 140 0.9 3.5 0.00 0.00 0.00 40 1013.4
20260507143853 53 140 2.6 3.5 0.00 0.00 0.00 41 1013.4
20260507143353 52 161 0.9 3.5 0.00 0.00 0.00 44 1013.3
20260507142853 51 149 1.7 4.3 0.00 0.00 0.00 43 1013.3
20260507142352 51 154 0.9 6.1 0.00 0.00 0.00 48 1013.2
20260507141352 50 140 3.5 6.1 0.00 0.00 0.00 48 1013.2
20260507140852 49 152 4.3 6.1 0.00 0.00 0.00 49 1013.1
20260507140353 48 147 4.3 9.6 0.00 0.00 0.00 51 1013.2
20260507135852 47 159 7.0 9.6 0.00 0.00 0.00 55 1013.2
20260507134852 45 148 6.1 7.8 0.00 0.00 0.00 59 1013.0
20260507134352 44 131 5.2 8.7 0.00 0.00 0.00 61 1013.0
20260507133852 43 124 5.2 8.7 0.00 0.00 0.00 63 1013.0
20260507132350 40 120 7.0 8.7 0.00 0.00 0.00 69 1013.0
20260507131851 39 116 5.2 8.7 0.00 0.00 0.00 73 1013.0
20260507131352 38 113 6.1 8.7 0.00 0.00 0.00 73 1013.1
20260507130853 37 110 6.1 8.7 0.00 0.00 0.00 76 1013.0
20260507130352 36 102 7.0 7.8 0.00 0.00 0.00 77 1012.9
20260507125850 35 106 5.2 7.8 0.00 0.00 0.00 79 1013.0
20260507125351 34 99 4.3 7.8 0.00 0.00 0.00 79 1013.0
20260507124351 33 106 6.1 7.8 0.00 0.00 0.00 82 1012.8
20260507123850 32 92 4.3 7.8 0.00 0.00 0.00 82 1012.7
20260507123349 0 103 5.2 6.1 0.00 0.00 0.00 1012.7
20260507122852 31 82 4.3 7.8 0.00 0.00 0.00 83 1012.6
20260507122350 30 90 5.2 8.7 0.00 0.00 0.00 84 1012.6
20260507121850 30 76 6.1 10.4 0.00 0.00 0.00 84 1012.5
20260507121349 30 85 7.8 10.4 0.00 0.00 0.00 85 1012.3
20260507120850 29 68 7.0 8.7 0.00 0.00 0.00 87 1012.3
20260507120348 27 96 4.3 7.8 0.00 0.00 0.00 87 1012.2
20260507115350 26 79 3.5 5.2 0.00 0.00 0.00 86 1011.9
20260507114851 25 69 4.3 5.2 0.00 0.00 0.00 87 1011.8
20260507113849 24 99 1.7 4.3 0.00 0.00 0.00 86 1011.8
20260507113348 24 103 3.5 4.3 0.00 0.00 0.00 86 1011.7
20260507112848 24 103 3.5 4.3 0.00 0.00 0.00 85 1011.7
20260507112351 25 100 4.3 4.3 0.00 0.00 0.00 84 1011.6
20260507111847 25 100 3.5 4.3 0.00 0.00 0.00 84 1011.6
20260507111348 26 100 4.3 4.3 0.00 0.00 0.00 83 1011.7
20260507110848 26 102 4.3 4.3 0.00 0.00 0.00 84 1011.7
20260507110349 26 0.0 5.2 0.00 0.00 0.00 84 1011.7
20260507105848 27 103 4.3 6.1 0.00 0.00 0.00 84 1011.6
20260507105348 27 90 4.3 6.1 0.00 0.00 0.00 84 1011.7
20260507104848 27 66 4.3 6.1 0.00 0.00 0.00 83 1011.8
20260507104347 27 90 5.2 6.1 0.00 0.00 0.00 82 1011.8
20260507103847 28 99 4.3 6.1 0.00 0.00 0.00 82 1011.8
20260507103348 28 78 3.5 6.1 0.00 0.00 0.00 82 1011.8
20260507102847 29 97 5.2 6.1 0.00 0.00 0.00 81 1011.7
20260507102347 29 96 5.2 7.8 0.00 0.00 0.00 81 1011.7
20260507101846 29 102 5.2 7.8 0.00 0.00 0.00 80 1011.7
20260507101347 29 92 3.5 10.4 0.00 0.00 0.00 80 1011.7
20260507100846 29 102 4.3 10.4 0.00 0.00 0.00 80 1011.8
20260507100347 29 69 5.2 7.8 0.00 0.00 0.00 79 1011.8
20260507095847 30 86 5.2 7.8 0.00 0.00 0.00 78 1011.7
20260507095345 30 94 5.2 8.7 0.00 0.00 0.00 78 1011.8
20260507094845 30 63 7.0 8.7 0.00 0.00 0.00 78 1011.8
20260507094346 30 82 5.2 10.4 0.00 0.00 0.00 77 1011.7
20260507093346 31 62 7.0 10.4 0.00 0.00 0.00 74 1011.9
20260507092845 32 87 4.3 10.4 0.00 0.00 0.00 74 1011.8
20260507092346 32 56 7.8 9.6 0.00 0.00 0.00 74 1011.9
20260507091845 33 71 6.1 10.4 0.00 0.00 0.00 73 1011.9
20260507091346 33 68 7.8 10.4 0.00 0.00 0.00 73 1011.8
20260507090845 0 58 7.8 8.7 0.00 0.00 0.00 1012.0
20260507090345 34 87 5.2 9.6 0.00 0.00 0.00 73 1012.0
20260507085845 34 73 7.8 9.6 0.00 0.00 0.00 73 1012.0
20260507085344 34 61 7.8 9.6 0.00 0.00 0.00 73 1012.2
20260507084847 35 80 5.2 7.8 0.00 0.00 0.00 73 1012.2
20260507084341 35 100 5.2 6.1 0.00 0.00 0.00 73 1012.0
20260507083843 35 93 5.2 6.1 0.00 0.00 0.00 74 1012.2
20260507083343 35 116 4.3 6.1 0.00 0.00 0.00 74 1012.3
20260507082841 34 100 5.2 6.1 0.00 0.00 0.00 75 1012.4
20260507082343 34 106 4.3 6.1 0.00 0.00 0.00 75 1012.3
20260507081844 34 97 4.3 6.1 0.00 0.00 0.00 76 1012.4
20260507081345 34 103 5.2 6.1 0.00 0.00 0.00 76 1012.5
20260507080844 34 93 5.2 6.1 0.00 0.00 0.00 76 1012.5
20260507080343 0 94 5.2 5.2 0.00 0.00 0.00 1012.5
20260507075842 0 96 4.3 6.1 0.00 0.00 0.00 1012.5
20260507075343 33 94 5.2 6.1 0.00 0.00 0.00 77 1012.5
20260507074844 32 93 4.3 6.1 0.00 0.00 0.00 78 1012.6
20260507074344 32 102 5.2 6.1 0.00 0.00 0.00 77 1012.6
20260507073343 32 94 5.2 6.1 0.00 0.00 0.00 76 1012.7
20260507072842 32 103 5.2 6.1 0.00 0.00 0.00 76 1012.7
20260507071341 31 83 3.5 5.2 0.00 0.00 0.00 77 1012.9
20260507070342 0 99 4.3 6.1 0.00 0.00 0.00 1013.0
20260507065843 0 87 4.3 5.2 0.00 0.00 0.00 1013.0
20260507065343 30 97 3.5 5.2 0.00 0.00 0.00 78 1013.1
20260507063841 29 100 5.2 6.1 0.00 0.00 0.00 76 1013.1
20260507063342 30 111 6.1 6.1 0.00 0.00 0.00 75 1013.1
20260507062841 31 111 5.2 6.1 0.00 0.00 0.00 74 1013.2
20260507062339 31 110 5.2 6.1 0.00 0.00 0.00 74 1013.2
20260507061839 32 104 4.3 4.3 0.00 0.00 0.00 74 1013.3
20260507061340 33 0.0 0.0 0.00 0.00 0.00 74 1013.3
20260507060839 33 0.0 7.8 0.00 0.00 0.00 72 1013.3
20260507055340 33 82 4.3 9.6 0.00 0.00 0.00 72 1013.3
20260507054839 33 100 7.0 10.4 0.00 0.00 0.00 73 1013.3
20260507054339 33 65 7.0 10.4 0.00 0.00 0.00 74 1013.4
20260507053839 32 78 5.2 7.8 0.00 0.00 0.00 74 1013.4
20260507053339 32 99 4.3 7.8 0.00 0.00 0.00 75 1013.4
20260507052839 31 99 5.2 7.8 0.00 0.00 0.00 76 1013.4
20260507052340 31 100 6.1 7.8 0.00 0.00 0.00 76 1013.4
20260507051838 31 104 5.2 7.8 0.00 0.00 0.00 75 1013.5
20260507051338 30 100 5.2 7.8 0.00 0.00 0.00 76 1013.3
20260507050838 29 106 7.0 7.8 0.00 0.00 0.00 75 1013.4
20260507050336 29 109 7.0 8.7 0.00 0.00 0.00 73 1013.4
20260507045338 31 110 6.1 6.1 0.00 0.00 0.00 72 1013.6